Airfield :
LOGIN :

Register | Disclaimer

   EN    FR    IT 

 










Legend :    VFR   Marginal VFR   IFR   Intensive IFR   Very Intensive IFR
Visi :
Ceiling :
>= 8 km
>= 3000ft
5 to 8 km
1000 to 3000 ft
1500m to 5 km
500 to 1000 ft
800 to 1500m
200 to 500 ft
< 800m
< 200 ft
Symbols :   Thunderstorms  Fog  Heavy snow  Heavy precipitations  Wind > 20 kt
SIGMETs :     Misc.  Thunderstorms  Icing  Turbulence  Mountain Waves  Volcanic Ashes







- Airport Elevation : 236 ft
- IATA code : MMX


ESMS - Malmö Sturup

CURRENT METAR :
  • 220020Z 11010KT CAVOK 15/13 Q1017

EXPIRED METARs :
  • 212350Z 11011KT CAVOK 15/13 Q1017
  • 212320Z 11011KT 9999 BKN045 15/13 Q1017
  • 212250Z 11010KT 9999 BKN043 15/13 Q1017
  • 212220Z 11010KT 9999 BKN042 15/13 Q1017
  • 212150Z 10010KT 9999 BKN040 15/13 Q1017

TAF TAF ESMS
Valid from the 22 at 00:00 until the 23 at 00:00 UTC


212318Z 2200/2224 11010KT 9999 BKN030
No reported NOTAMs for that airfield.



MET'MAP, your aeronautical weather chart ! - Copyright ORBIFLY December 2007 - Disclaimer

ORBIFLY MET'MAP TEAM :

Programming & Development : Alexandra Zaïnal
Concept & Development : Baudouin d'Aumeries
Co-Development & Prog : Marc-Olivier Méhu
Technical & hardware support : Manuel Goepfert

Contact : metmap@orbifly.com




SOURCES & CREDITS :

   NOAA